DW8749 Weather Reports


Display with metric or nautical units.
time (UTC)temp
F
wind
direction
speed
MPH
gust
MPH
rain 1hr
in
rain 24hr
in
rain mn
in
humidity
%
barometer
mb
20260904065518 81 157 7.0 14.0 0.00 0.00 0.00 64 1012.2
20260904065018 81 192 8.0 16.0 0.00 0.00 0.00 64 1012.2
20260904064512 81 175 5.0 17.0 0.00 0.00 0.00 64 1012.1
20260904064008 81 159 5.0 17.0 0.00 0.00 0.00 64 1012.1
20260904063507 82 159 6.0 13.0 0.00 0.00 0.00 63 1012.2
20260904063021 82 171 7.0 14.0 0.00 0.00 0.00 63 1012.1
20260904062510 82 200 6.0 14.0 0.00 0.00 0.00 62 1012.2
20260904062014 82 178 7.0 15.0 0.00 0.00 0.00 62 1012.0
20260904061526 82 180 8.0 15.0 0.00 0.00 0.00 62 1012.0
20260904061017 82 159 7.0 17.0 0.00 0.00 0.00 62 1011.9
20260904060514 82 173 7.0 17.0 0.00 0.00 0.00 61 1011.9
20260904060030 83 221 7.0 15.0 0.00 0.00 0.00 61 1011.8
20260904055515 83 193 8.0 15.0 0.00 0.00 0.00 61 1011.8
20260904055015 83 171 7.0 21.0 0.00 0.00 0.00 60 1011.8
20260904054515 83 155 9.0 21.0 0.00 0.00 0.00 60 1011.7
20260904054007 83 218 8.0 16.0 0.00 0.00 0.00 59 1011.6
20260904053510 83 160 6.0 18.0 0.00 0.00 0.00 59 1011.6
20260904053025 83 209 10.0 18.0 0.00 0.00 0.00 59 1011.6
20260904052514 84 173 7.0 18.0 0.00 0.00 0.00 58 1011.5
20260904052012 84 155 7.0 18.0 0.00 0.00 0.00 58 1011.4
20260904051551 84 172 8.0 19.0 0.00 0.00 0.00 58 1011.6
20260904051016 84 159 8.0 19.0 0.00 0.00 0.00 57 1011.4
20260904050517 84 174 7.0 16.0 0.00 0.00 0.00 57 1011.3
20260904050031 84 159 9.0 17.0 0.00 0.00 0.00 57 1011.3
20260904045519 85 155 8.0 18.0 0.00 0.00 0.00 56 1011.3
20260904045007 85 143 9.0 21.0 0.00 0.00 0.00 56 1011.2
20260904044516 85 169 11.0 23.0 0.00 0.00 0.00 55 1011.2
20260904044013 85 145 7.0 23.0 0.00 0.00 0.00 55 1011.2
20260904043512 85 128 9.0 20.0 0.00 0.00 0.00 54 1011.1
20260904043025 86 138 9.0 20.0 0.00 0.00 0.00 54 1011.2
20260904042517 86 159 12.0 17.0 0.00 0.00 0.00 54 1011.2
20260904042015 86 173 9.0 18.0 0.00 0.00 0.00 53 1011.1
20260904041531 86 202 10.0 18.0 0.00 0.00 0.00 53 1011.1
20260904041015 86 131 9.0 20.0 0.00 0.00 0.00 52 1011.0
20260904040520 86 161 10.0 17.0 0.00 0.00 0.00 52 1010.9
20260904040035 87 148 8.0 17.0 0.00 0.00 0.00 51 1010.9
20260904035517 87 167 10.0 18.0 0.00 0.00 0.00 51 1011.0
20260904035009 87 164 8.0 19.0 0.00 0.00 0.00 50 1011.0
20260904034517 87 132 10.0 19.0 0.00 0.00 0.00 50 1011.0
20260904034012 87 167 9.0 18.0 0.00 0.00 0.00 49 1010.9
20260904033512 88 153 9.0 18.0 0.00 0.00 0.00 49 1010.9
20260904033031 88 149 10.0 18.0 0.00 0.00 0.00 48 1010.9
20260904032513 88 176 10.0 18.0 0.00 0.00 0.00 47 1010.9
20260904032015 88 167 8.0 18.0 0.00 0.00 0.00 47 1010.7
20260904031529 89 128 11.0 20.0 0.00 0.00 0.00 46 1010.8
20260904031017 89 138 11.0 20.0 0.00 0.00 0.00 46 1010.7
20260904030518 89 136 11.0 18.0 0.00 0.00 0.00 45 1010.7
20260904030035 89 175 12.0 19.0 0.00 0.00 0.00 45 1010.6
20260904025510 89 141 10.0 19.0 0.00 0.00 0.00 44 1010.4
20260904025010 90 144 9.0 17.0 0.00 0.00 0.00 44 1010.4
20260904024516 90 150 10.0 20.0 0.00 0.00 0.00 43 1010.4
20260904024002 90 163 12.0 20.0 0.00 0.00 0.00 43 1010.3
20260904023505 90 150 9.0 19.0 0.00 0.00 0.00 43 1010.2
20260904023004 90 138 10.0 19.0 0.00 0.00 0.00 43 1010.1
20260904022505 91 123 10.0 15.0 0.00 0.00 0.00 43 1010.0
20260904022005 91 139 7.0 14.0 0.00 0.00 0.00 42 1010.0
20260904021510 91 134 8.0 17.0 0.00 0.00 0.00 42 1009.8
20260904021011 91 360 10.0 17.0 0.00 0.00 0.00 42 1009.8
20260904020507 91 140 9.0 16.0 0.00 0.00 0.00 42 1009.7
20260904020019 92 142 11.0 16.0 0.00 0.00 0.00 42 1009.6
20260904015510 92 117 9.0 20.0 0.00 0.00 0.00 42 1009.4
20260904015014 92 119 9.0 20.0 0.00 0.00 0.00 41 1009.4
20260904014503 92 131 8.0 17.0 0.00 0.00 0.00 41 1009.3
20260904014008 93 147 8.0 17.0 0.00 0.00 0.00 41 1009.1
20260904013503 93 150 7.0 17.0 0.00 0.00 0.00 40 1009.1
20260904013010 93 157 7.0 16.0 0.00 0.00 0.00 40 1009.1
20260904012505 93 142 8.0 14.0 0.00 0.00 0.00 39 1009.0
20260904012007 94 166 9.0 14.0 0.00 0.00 0.00 39 1009.1
20260904011513 94 162 7.0 13.0 0.00 0.00 0.00 39 1009.0
20260904011014 94 136 7.0 13.0 0.00 0.00 0.00 39 1009.0
20260904010508 95 163 7.0 15.0 0.00 0.00 0.00 38 1008.9
20260904010035 95 157 8.0 17.0 0.00 0.00 0.00 38 1008.8
20260904005510 96 134 9.0 17.0 0.00 0.00 0.00 37 1008.8
20260904005011 96 148 9.0 15.0 0.00 0.00 0.00 37 1008.8
20260904004503 96 148 8.0 15.0 0.00 0.00 0.00 36 1008.8
20260904004003 97 157 6.0 17.0 0.00 0.00 0.00 36 1008.7
20260904003505 97 159 10.0 17.0 0.00 0.00 0.00 36 1008.6
20260904003009 97 179 9.0 21.0 0.00 0.00 0.00 35 1008.6
20260904002508 98 119 11.0 21.0 0.00 0.00 0.00 35 1008.7
20260904002010 98 161 11.0 18.0 0.00 0.00 0.00 35 1008.7
20260904001518 98 161 8.0 23.0 0.00 0.00 0.00 34 1008.7
20260904001011 98 180 9.0 23.0 0.00 0.00 0.00 34 1008.7
20260904000516 99 141 12.0 23.0 0.00 0.00 0.00 34 1008.7
20260904000029 99 171 8.0 18.0 0.00 0.00 0.00 34 1008.6
20260903235511 99 137 8.0 20.0 0.00 0.00 0.00 33 1008.6
20260903235003 99 147 7.0 20.0 0.00 0.00 0.00 33 1008.6
20260903234504 100 156 10.0 20.0 0.00 0.00 0.00 33 1008.6
20260903234006 100 126 11.0 16.0 0.00 0.00 0.00 32 1008.5
20260903233506 100 157 9.0 13.0 0.00 0.00 0.00 31 1008.5
20260903233010 100 196 7.0 13.0 0.00 0.00 0.00 30 1008.5
20260903232509 101 170 6.0 18.0 0.00 0.00 0.00 29 1008.4
20260903232011 101 173 8.0 21.0 0.00 0.00 0.00 29 1008.3
20260903231519 101 233 12.0 21.0 0.00 0.00 0.00 28 1008.2
20260903231011 101 164 8.0 18.0 0.00 0.00 0.00 28 1008.3
20260903230511 101 202 6.0 18.0 0.00 0.00 0.00 28 1008.3
20260903230024 101 211 8.0 20.0 0.00 0.00 0.00 28 1008.2
20260903225516 102 218 9.0 20.0 0.00 0.00 0.00 28 1008.2
20260903225004 102 193 9.0 14.0 0.00 0.00 0.00 28 1008.2
20260903224508 102 199 7.0 18.0 0.00 0.00 0.00 27 1008.3
20260903224008 102 202 10.0 21.0 0.00 0.00 0.00 27 1008.3
20260903223507 102 156 12.0 21.0 0.00 0.00 0.00 27 1008.3
20260903223015 102 205 9.0 18.0 0.00 0.00 0.00 28 1008.3
20260903222512 102 170 9.0 18.0 0.00 0.00 0.00 27 1008.4
20260903222010 102 198 7.0 18.0 0.00 0.00 0.00 27 1008.3
20260903221523 102 194 10.0 18.0 0.00 0.00 0.00 27 1008.4
20260903221014 102 192 9.0 17.0 0.00 0.00 0.00 27 1008.5
20260903220515 102 169 10.0 18.0 0.00 0.00 0.00 27 1008.5
20260903220023 102 161 11.0 20.0 0.00 0.00 0.00 27 1008.6
20260903215506 102 177 9.0 20.0 0.00 0.00 0.00 28 1008.6
20260903215004 102 165 10.0 19.0 0.00 0.00 0.00 28 1008.6
20260903214516 102 167 9.0 21.0 0.00 0.00 0.00 27 1008.7
20260903214012 103 171 11.0 23.0 0.00 0.00 0.00 27 1008.7
20260903213510 103 191 10.0 23.0 0.00 0.00 0.00 27 1008.7
20260903213017 103 238 10.0 21.0 0.00 0.00 0.00 27 1008.7
20260903212510 103 192 9.0 20.0 0.00 0.00 0.00 27 1008.6
20260903212015 103 178 9.0 20.0 0.00 0.00 0.00 27 1008.5
20260903211526 103 170 10.0 16.0 0.00 0.00 0.00 27 1008.6
20260903211014 103 242 7.0 17.0 0.00 0.00 0.00 27 1008.7
20260903210514 103 205 10.0 20.0 0.00 0.00 0.00 27 1008.9
20260903210004 103 246 10.0 19.0 0.00 0.00 0.00 27 1009.0
20260903205509 103 225 8.0 19.0 0.00 0.00 0.00 28 1009.0
20260903205006 103 198 8.0 19.0 0.00 0.00 0.00 28 1009.2
20260903204512 102 184 8.0 25.0 0.00 0.00 0.00 28 1009.1
20260903204007 102 151 10.0 25.0 0.00 0.00 0.00 28 1009.2
20260903203516 103 174 11.0 19.0 0.00 0.00 0.00 28 1009.2
20260903203033 103 184 6.0 20.0 0.00 0.00 0.00 29 1009.1
20260903202512 102 211 9.0 19.0 0.00 0.00 0.00 28 1009.2
20260903202015 102 142 10.0 19.0 0.00 0.00 0.00 28 1009.3
20260903201528 102 184 9.0 17.0 0.00 0.00 0.00 28 1009.3
20260903201015 102 266 11.0 27.0 0.00 0.00 0.00 29 1009.4
20260903200515 102 213 11.0 27.0 0.00 0.00 0.00 29 1009.5
20260903200010 102 136 9.0 22.0 0.00 0.00 0.00 30 1009.5
20260903195508 102 223 9.0 22.0 0.00 0.00 0.00 29 1009.6
20260903195007 101 173 11.0 22.0 0.00 0.00 0.00 30 1009.6
20260903194515 101 211 9.0 20.0 0.00 0.00 0.00 29 1009.5
20260903194010 101 197 12.0 20.0 0.00 0.00 0.00 29 1009.6
20260903193514 101 211 12.0 19.0 0.00 0.00 0.00 30 1009.6
20260903193023 101 178 11.0 22.0 0.00 0.00 0.00 32 1009.5
20260903192517 101 205 10.0 22.0 0.00 0.00 0.00 32 1009.5
20260903192015 101 188 9.0 18.0 0.00 0.00 0.00 33 1009.6
20260903191526 100 194 6.0 23.0 0.00 0.00 0.00 33 1009.7
20260903191015 100 221 11.0 23.0 0.00 0.00 0.00 33 1009.9
20260903190505 100 217 9.0 23.0 0.00 0.00 0.00 33 1009.9
20260903190010 99 192 11.0 24.0 0.00 0.00 0.00 34 1010.0
20260903185510 99 155 11.0 25.0 0.00 0.00 0.00 34 1010.1
20260903185010 100 162 12.0 25.0 0.00 0.00 0.00 34 1010.2
20260903184519 100 140 10.0 19.0 0.00 0.00 0.00 34 1010.3
20260903184014 99 205 8.0 24.0 0.00 0.00 0.00 34 1010.3
20260903183514 99 146 11.0 24.0 0.00 0.00 0.00 34 1010.4
20260903183028 99 200 11.0 23.0 0.00 0.00 0.00 34 1010.5
20260903182516 99 178 12.0 22.0 0.00 0.00 0.00 33 1010.6
20260903182015 99 228 11.0 21.0 0.00 0.00 0.00 35 1010.8
20260903181527 99 236 9.0 19.0 0.00 0.00 0.00 34 1010.8
20260903181013 99 196 8.0 22.0 0.00 0.00 0.00 35 1010.8
20260903180506 99 206 10.0 24.0 0.00 0.00 0.00 34 1010.9
20260903180020 98 206 10.0 24.0 0.00 0.00 0.00 35 1011.0
20260903175511 98 192 10.0 24.0 0.00 0.00 0.00 36 1011.1
20260903175010 98 243 9.0 24.0 0.00 0.00 0.00 36 1011.1
20260903174523 98 196 7.0 23.0 0.00 0.00 0.00 36 1011.1
20260903174015 97 237 12.0 24.0 0.00 0.00 0.00 36 1011.1
20260903173514 97 198 11.0 24.0 0.00 0.00 0.00 37 1011.1
20260903173003 97 243 10.0 22.0 0.00 0.00 0.00 38 1011.1
20260903172506 97 211 9.0 19.0 0.00 0.00 0.00 38 1011.1
20260903172006 96 236 10.0 29.0 0.00 0.00 0.00 38 1011.1
20260903171511 96 360 13.0 31.0 0.00 0.00 0.00 37 1011.2
20260903171011 96 188 12.0 31.0 0.00 0.00 0.00 39 1011.2
20260903170510 95 202 12.0 23.0 0.00 0.00 0.00 39 1011.2
20260903170021 95 360 12.0 22.0 0.00 0.00 0.00 40 1011.2
20260903165511 95 191 12.0 26.0 0.00 0.00 0.00 40 1011.3
20260903165011 94 211 10.0 26.0 0.00 0.00 0.00 41 1011.3
20260903164526 94 223 12.0 25.0 0.00 0.00 0.00 41 1011.4
20260903164014 94 360 12.0 21.0 0.00 0.00 0.00 42 1011.5
20260903163502 94 160 12.0 22.0 0.00 0.00 0.00 42 1011.5
20260903163007 93 180 8.0 22.0 0.00 0.00 0.00 44 1011.5
20260903162507 93 195 9.0 22.0 0.00 0.00 0.00 44 1011.6
20260903162006 92 209 10.0 25.0 0.00 0.00 0.00 46 1011.6
20260903161512 92 210 11.0 25.0 0.00 0.00 0.00 46 1011.6
20260903161011 91 189 10.0 20.0 0.00 0.00 0.00 46 1011.5
20260903160511 91 154 11.0 22.0 0.00 0.00 0.00 47 1011.4
20260903160049 90 232 11.0 20.0 0.00 0.00 0.00 48 1011.5
20260903155513 90 186 8.0 20.0 0.00 0.00 0.00 48 1011.5
20260903155013 89 196 13.0 26.0 0.00 0.00 0.00 48 1011.6
20260903154528 89 175 12.0 24.0 0.00 0.00 0.00 49 1011.6
20260903154019 88 360 12.0 23.0 0.00 0.00 0.00 50 1011.6
20260903153505 88 178 12.0 23.0 0.00 0.00 0.00 50 1011.6
20260903153007 88 213 9.0 23.0 0.00 0.00 0.00 50 1011.6
20260903152513 87 163 14.0 22.0 0.00 0.00 0.00 51 1011.6
20260903152010 87 217 11.0 22.0 0.00 0.00 0.00 51 1011.6
20260903151519 87 168 11.0 22.0 0.00 0.00 0.00 51 1011.6
20260903151011 87 360 12.0 22.0 0.00 0.00 0.00 51 1011.7
20260903150514 87 201 11.0 23.0 0.00 0.00 0.00 52 1011.6
20260903150030 86 167 9.0 23.0 0.00 0.00 0.00 53 1011.7
20260903145513 86 178 11.0 21.0 0.00 0.00 0.00 53 1011.7
20260903145018 85 180 10.0 21.0 0.00 0.00 0.00 54 1011.8
20260903144530 85 167 8.0 22.0 0.00 0.00 0.00 54 1011.8
20260903144006 85 209 11.0 22.0 0.00 0.00 0.00 55 1011.7
20260903143506 84 140 10.0 21.0 0.00 0.00 0.00 55 1011.8
20260903143020 84 194 7.0 18.0 0.00 0.00 0.00 56 1011.8
20260903142510 84 360 8.0 25.0 0.00 0.00 0.00 56 1011.9
20260903142010 84 190 10.0 25.0 0.00 0.00 0.00 56 1011.9
20260903141519 83 163 10.0 22.0 0.00 0.00 0.00 57 1011.9
20260903141012 83 360 10.0 19.0 0.00 0.00 0.00 57 1011.9
20260903140517 82 360 10.0 21.0 0.00 0.00 0.00 58 1011.8
20260903140030 82 360 8.0 23.0 0.00 0.00 0.00 58 1011.8
20260903135517 82 360 11.0 26.0 0.00 0.00 0.00 58 1011.9
20260903135017 81 360 10.0 26.0 0.00 0.00 0.00 59 1011.9
20260903134506 81 360 8.0 14.0 0.00 0.00 0.00 60 1011.9
20260903134006 80 178 6.0 17.0 0.00 0.00 0.00 61 1011.9
20260903133508 80 167 9.0 17.0 0.00 0.00 0.00 61 1011.9
20260903133014 79 132 6.0 12.0 0.00 0.00 0.00 61 1011.9
20260903132510 79 161 6.0 12.0 0.00 0.00 0.00 62 1012.0
20260903132013 79 196 7.0 14.0 0.00 0.00 0.00 62 1012.1
20260903131524 79 191 6.0 14.0 0.00 0.00 0.00 62 1012.0
20260903131017 79 167 5.0 12.0 0.00 0.00 0.00 62 1012.0
20260903130518 79 128 5.0 12.0 0.00 0.00 0.00 62 1012.0
20260903130030 79 360 5.0 11.0 0.00 0.00 0.00 61 1012.0
20260903125517 79 360 5.0 12.0 0.00 0.00 0.00 61 1012.0
20260903125017 79 163 5.0 12.0 0.00 0.00 0.00 61 1012.0
20260903124512 79 360 4.0 12.0 0.00 0.00 0.00 61 1012.1
20260903124010 79 134 5.0 11.0 0.00 0.00 0.00 60 1012.0
20260903123512 79 189 6.0 10.0 0.00 0.00 0.00 60 1012.0
20260903123023 79 214 5.0 13.0 0.00 0.00 0.00 60 1011.9
20260903122518 79 199 6.0 13.0 0.00 0.00 0.00 60 1011.9
20260903122014 79 192 5.0 13.0 0.00 0.00 0.00 59 1011.9
20260903121528 79 168 6.0 13.0 0.00 0.00 0.00 59 1011.9
20260903121018 80 360 5.0 11.0 0.00 0.00 0.00 59 1011.9
20260903120516 80 179 5.0 11.0 0.00 0.00 0.00 59 1011.8
20260903120036 80 190 4.0 11.0 0.00 0.00 0.00 59 1011.8
20260903115517 80 215 6.0 11.0 0.00 0.00 0.00 59 1011.7
20260903115007 80 194 4.0 14.0 0.00 0.00 0.00 58 1011.8
20260903114515 80 360 5.0 13.0 0.00 0.00 0.00 58 1011.8
20260903114010 80 360 4.0 12.0 0.00 0.00 0.00 58 1011.7
20260903113510 80 360 6.0 12.0 0.00 0.00 0.00 58 1011.7
20260903113033 80 165 5.0 12.0 0.00 0.00 0.00 58 1011.7
20260903112516 80 360 7.0 12.0 0.00 0.00 0.00 57 1011.7
20260903112014 81 360 5.0 17.0 0.00 0.00 0.00 57 1011.7
20260903111532 80 190 6.0 15.0 0.00 0.00 0.00 57 1011.7
20260903111015 81 360 5.0 14.0 0.00 0.00 0.00 57 1011.7
20260903110516 81 199 5.0 16.0 0.00 0.00 0.00 57 1011.7
20260903110033 81 170 8.0 16.0 0.00 0.00 0.00 57 1011.8
20260903105516 81 197 6.0 13.0 0.00 0.00 0.00 57 1011.7
20260903105012 81 194 6.0 13.0 0.00 0.00 0.00 57 1011.8
20260903104520 81 163 5.0 12.0 0.00 0.00 0.00 57 1011.9
20260903104013 81 198 7.0 13.0 0.00 0.00 0.00 57 1011.8
20260903103515 81 189 5.0 15.0 0.00 0.00 0.00 57 1011.8
20260903103028 81 188 7.0 15.0 0.00 0.00 0.00 56 1011.8
20260903102514 81 190 5.0 14.0 0.00 0.00 0.00 56 1011.9
20260903102016 81 360 6.0 18.0 0.00 0.00 0.00 56 1011.9
20260903101533 81 360 5.0 18.0 0.00 0.00 0.00 56 1011.8
20260903101015 81 360 7.0 18.0 0.00 0.00 0.00 56 1011.8
20260903100515 81 191 7.0 16.0 0.00 0.00 0.00 56 1011.9
20260903100034 81 214 8.0 16.0 0.00 0.00 0.00 55 1011.9
20260903095512 81 178 5.0 14.0 0.00 0.00 0.00 55 1011.9
20260903095010 81 360 6.0 17.0 0.00 0.00 0.00 55 1011.9
20260903094524 81 360 7.0 19.0 0.00 0.00 0.00 55 1011.9
20260903094012 81 181 7.0 19.0 0.00 0.00 0.00 54 1011.9
20260903093516 81 204 7.0 15.0 0.00 0.00 0.00 54 1011.9
20260903093039 81 360 8.0 15.0 0.00 0.00 0.00 54 1012.0
20260903092516 82 360 5.0 14.0 0.00 0.00 0.00 54 1012.0
20260903092015 82 201 8.0 15.0 0.00 0.00 0.00 54 1012.0
20260903091534 82 150 6.0 17.0 0.00 0.00 0.00 54 1012.0
20260903091019 82 192 8.0 17.0 0.00 0.00 0.00 54 1012.0
20260903090515 82 360 8.0 18.0 0.00 0.00 0.00 53 1012.0
20260903090028 82 165 6.0 18.0 0.00 0.00 0.00 53 1012.0
20260903085514 82 197 8.0 18.0 0.00 0.00 0.00 53 1012.0
20260903085012 82 191 7.0 15.0 0.00 0.00 0.00 53 1012.0
20260903084504 82 213 6.0 12.0 0.00 0.00 0.00 53 1011.9
20260903084005 82 181 7.0 22.0 0.00 0.00 0.00 52 1011.9
20260903083502 82 196 8.0 22.0 0.00 0.00 0.00 52 1011.9
20260903083006 82 196 8.0 16.0 0.00 0.00 0.00 52 1011.9
20260903082505 82 164 6.0 18.0 0.00 0.00 0.00 52 1011.9
20260903082006 82 360 6.0 18.0 0.00 0.00 0.00 52 1011.9
20260903081514 83 178 6.0 15.0 0.00 0.00 0.00 52 1011.8
20260903081014 83 360 7.0 15.0 0.00 0.00 0.00 52 1011.9
20260903080510 83 206 7.0 15.0 0.00 0.00 0.00 51 1011.8
20260903080031 83 159 8.0 15.0 0.00 0.00 0.00 51 1011.8
20260903075515 83 360 7.0 15.0 0.00 0.00 0.00 51 1011.7
20260903075012 83 136 8.0 15.0 0.00 0.00 0.00 51 1011.7
20260903074504 83 169 8.0 14.0 0.00 0.00 0.00 51 1011.7
20260903074005 83 360 7.0 15.0 0.00 0.00 0.00 51 1011.8
20260903073505 83 153 7.0 16.0 0.00 0.00 0.00 51 1011.8
20260903073015 83 190 6.0 16.0 0.00 0.00 0.00 51 1011.8
20260903072509 83 178 7.0 17.0 0.00 0.00 0.00 50 1011.7
20260903072009 83 160 7.0 18.0 0.00 0.00 0.00 50 1011.7
20260903071530 84 360 9.0 18.0 0.00 0.00 0.00 50 1011.7
20260903071009 84 167 8.0 15.0 0.00 0.00 0.00 50 1011.8
20260903070512 84 200 8.0 15.0 0.00 0.00 0.00 50 1011.8
20260903070026 84 360 7.0 15.0 0.00 0.00 0.00 50 1011.8